Content
SEND FEEDBACK

Daily
Averages
Monthly
Summary
United States of America

SWISHER, IOWA


Home > North America > United States > Iowa
Elevation: 833 feet     Latitude: 41 52N     Longitude: 091 41W

WEATHER
 
SELECT A DAY
Number of Records: 199,875;   Date Range: 1/1/95 - 9/13/14
 
SHARE

PRINT THIS DATA

[ ← Previous Day ]
WEATHER ALMANAC - JANUARY 31, 2013
[ Next Day → ]
[ °C ]   °F
Weather ElementAverageHighLow
Temperature4.7 °F15.1 °F (12:52 am)-0.9 °F (10:52 pm)
Dewpoint-0.8 °F9 °F (12:52 am)-7.6 °F (8:44 pm)
Humidity78.1 %87 % (4:52 am)72 % (2:02 pm)
Barometer30.06 in30.35 in (11:52 pm)29.77 in (12:25 am)
Wind Speed21 mph28.8 mph (1:52 pm)
Wind Gust38 mph (12:52 pm)
Weather ElementAverage
Visibility6.8 mi
Wind DirectionWNW (299.8 °)

Weather ElementTotal
Precipitation---
Heating Degree Days57.9 (Base 65)
Averaged from 42 records on January 31, 2013
WEATHER CONDITIONS BREAKOUT
WIND DIRECTION BREAKOUT
WEATHER BY HOUR - JANUARY 31, 2013
[ °C ]   °F
Local TimeTemperatureDewpointHumidityBarometerVisibilityWind DirectionWind SpeedGust SpeedPrecipitationEventsConditions
12:25 AM14.0 °F8.6 °F79 %29.77 in6.0 miWNW (300°)24.2 mph0.00 inOvercast
12:52 AM15.1 °F9.0 °F77 %29.82 in9.0 miWNW (300°)23.0 mph26.5 mph0.00 inOvercast
1:40 AM12.2 °F6.8 °F79 %29.80 in4.0 miWNW (290°)24.2 mph32.2 mph0.00 inSnowBlowing Snow
1:50 AM10.4 °F6.8 °F85 %29.81 in8.0 miWNW (290°)19.6 mph28.8 mph0.00 inMostly Cloudy
1:52 AM10.9 °F6.1 °F81 %29.85 in9.0 miWNW (290°)20.7 mph28.8 mph0.00 inMostly Cloudy
2:52 AM10.0 °F3.9 °F76 %29.87 in10.0 miWNW (290°)19.6 mphPartly Cloudy
3:52 AM8.1 °F3.9 °F83 %29.87 in10.0 miWNW (290°)12.7 mphMostly Cloudy
4:47 AM6.8 °F3.2 °F85 %29.83 in9.0 miWest (280°)11.5 mphMostly Cloudy
4:52 AM7.0 °F3.9 °F87 %29.89 in9.0 miWest (280°)13.8 mphMostly Cloudy
4:56 AM6.8 °F3.2 °F85 %29.84 in9.0 miWest (280°)13.8 mphScattered Clouds
5:52 AM6.1 °F1.9 °F83 %29.90 in10.0 miWNW (290°)18.4 mphClear
6:52 AM7.0 °F1.9 °F80 %29.93 in9.0 miWNW (290°)15.0 mphMostly Cloudy
7:52 AM5.0 °F1.9 °F87 %29.95 in9.0 miWNW (300°)13.8 mphMostly Cloudy
8:52 AM5.0 °F1.0 °F84 %29.97 in7.0 miWNW (290°)21.9 mph0.00 inScattered Clouds
9:52 AM5.0 °F-0.9 °F76 %30.01 in9.0 miWNW (300°)21.9 mphScattered Clouds
10:52 AM5.0 °F-0.9 °F76 %30.04 in7.0 miNW (310°)25.3 mph33.4 mphScattered Clouds
11:52 AM5.0 °F-0.9 °F76 %30.06 in5.0 miWNW (300°)26.5 mph31.1 mph0.00 inScattered Clouds
12:52 PM5.0 °F-0.9 °F76 %30.08 in3.0 miNW (310°)26.5 mph38.0 mph0.00 inSnowBlowing Snow
1:52 PM6.1 °F0.0 °F76 %30.09 in4.0 miWNW (300°)28.8 mph35.7 mph0.00 inSnowLight Snow
1:59 PM5.0 °F-0.4 °F78 %30.04 in4.0 miWNW (300°)21.9 mph35.7 mph0.00 inSnowLight Snow
2:02 PM6.8 °F-0.4 °F72 %30.04 in4.0 miWNW (300°)27.6 mph31.1 mph0.00 inSnowLight Snow
2:19 PM3.2 °F-0.4 °F85 %30.04 in2.5 miWNW (300°)28.8 mph38.0 mph0.00 inSnowLight Snow
2:52 PM3.9 °F-0.9 °F80 %30.12 in2.5 miWNW (300°)28.8 mph38.0 mph0.00 inSnowLight Snow
2:54 PM5.0 °F-0.4 °F78 %30.06 in0.8 miWNW (300°)25.3 mph38.0 mph0.00 inSnowLight Snow
2:57 PM5.0 °F-2.2 °F72 %30.06 in2.5 miWNW (300°)26.5 mph38.0 mph0.00 inSnowLight Snow
3:19 PM5.0 °F1.4 °F85 %30.08 in0.2 miNW (310°)25.3 mph36.8 mph0.00 inSnowHeavy Snow
3:27 PM3.2 °F-0.4 °F85 %30.08 in1.2 miNW (310°)27.6 mph36.8 mph0.00 inSnowLight Snow
3:52 PM3.9 °F-2.0 °F76 %30.15 in2.0 miWNW (300°)24.2 mph34.5 mph0.00 inSnowSnow
4:52 PM3.0 °F-2.0 °F80 %30.19 in2.0 miWNW (300°)26.5 mph33.4 mph0.00 inSnowSnow
5:52 PM1.9 °F-4.0 °F76 %30.21 in2.0 miWNW (300°)23.0 mph29.9 mph0.00 inSnowSnow
5:59 PM1.4 °F-4.0 °F78 %30.15 in5.0 miWNW (300°)23.0 mph31.1 mph0.00 inSnowSnow
6:52 PM1.9 °F-4.0 °F76 %30.24 in9.0 miNW (310°)19.6 mph27.6 mph0.00 inOvercast
7:52 PM1.0 °F-5.1 °F75 %30.27 in10.0 miNW (310°)17.3 mphOvercast
8:44 PM-0.4 °F-7.6 °F72 %30.22 in10.0 miNW (310°)18.4 mphScattered Clouds
8:52 PM0.0 °F-7.1 °F72 %30.29 in10.0 miNW (310°)17.3 mphMostly Cloudy
9:52 PM0.0 °F-7.1 °F72 %30.31 in10.0 miNW (310°)17.3 mph25.3 mphMostly Cloudy
10:28 PM-0.4 °F-7.6 °F72 %30.25 in10.0 miNW (310°)18.4 mphScattered Clouds
10:42 PM-0.4 °F-7.6 °F72 %30.25 in10.0 miNW (310°)17.3 mphMostly Cloudy
10:52 PM-0.9 °F-7.1 °F75 %30.33 in10.0 miNW (310°)18.4 mphMostly Cloudy
11:04 PM-0.4 °F-7.6 °F72 %30.26 in10.0 miNW (310°)17.3 mphPartly Cloudy
11:35 PM-0.4 °F-7.6 °F72 %30.28 in10.0 miWNW (300°)16.1 mphMostly Cloudy
11:52 PM-0.9 °F-7.1 °F75 %30.35 in10.0 miWNW (300°)16.1 mphOvercast
Hourly data recorded from KCID, located miles away from Swisher, Iowa







STORIES FROM OUR PARTNERS